• In Uzbekistan
  • List of Countries
  • For 7 days
  • Water Temperature
  • Satellite Maps
  • Weather Map
  • Weather Widgets
  • user-avatar
    Login

    Hourly Weather Dikhil

    Today, 16 January, Tuesday

    Time Temperature Precipitation Wind Pressure Humidity
    00:00 +24°C° 0 mm 2 mps 720 mmHg 49%
    01:00 +23°C° 0 mm 2 mps 720 mmHg 51%
    02:00 +23°C° 0 mm 2 mps 720 mmHg 53%
    03:00 +22°C° 0 mm 1 mps 719 mmHg 56%
    04:00 +22°C° 0 mm 1 mps 720 mmHg 57%
    05:00 +21°C° 0 mm 1 mps 720 mmHg 58%
    06:00 +21°C° 0 mm 1 mps 720 mmHg 59%
    07:00 +22°C° 0 mm 1 mps 720 mmHg 53%
    08:00 +23°C° 0 mm 1 mps 721 mmHg 48%
    09:00 +25°C° 0 mm 1 mps 721 mmHg 42%
    10:00 +26°C° 0 mm 1 mps 721 mmHg 37%
    11:00 +28°C° 0 mm 1 mps 721 mmHg 33%
    12:00 +29°C° 0 mm 2 mps 720 mmHg 28%
    13:00 +30°C° 0 mm 2 mps 720 mmHg 26%
    14:00 +31°C° 0 mm 2 mps 719 mmHg 24%
    15:00 +31°C° 0 mm 3 mps 719 mmHg 22%
    16:00 +31°C° 0 mm 3 mps 718 mmHg 24%
    17:00 +30°C° 0 mm 4 mps 718 mmHg 27%
    18:00 +30°C° 0 mm 5 mps 718 mmHg 29%
    19:00 +29°C° 0 mm 5 mps 718 mmHg 35%
    20:00 +27°C° 0 mm 5 mps 719 mmHg 42%
    21:00 +26°C° 0 mm 5 mps 719 mmHg 48%
    22:00 +26°C° 0 mm 4 mps 719 mmHg 51%
    23:00 +25°C° 0 mm 3 mps 719 mmHg 53%

    Tomorrow, 17 January, Wednesday

    Time Temperature Precipitation Wind Pressure Humidity
    00:00 +24°C° 0 mm 3 mps 719 mmHg 56%
    01:00 +24°C° 0 mm 3 mps 718 mmHg 58%
    02:00 +23°C° 0 mm 2 mps 718 mmHg 60%
    03:00 +23°C° 0 mm 2 mps 718 mmHg 63%
    04:00 +21°C° 0 mm 2 mps 718 mmHg 64%
    05:00 +21°C° 0 mm 2 mps 718 mmHg 66%
    06:00 +20°C° 0 mm 2 mps 718 mmHg 68%
    07:00 +21°C° 0 mm 2 mps 718 mmHg 62%
    08:00 +24°C° 0 mm 2 mps 719 mmHg 55%
    09:00 +25°C° 0 mm 3 mps 719 mmHg 49%
    10:00 +26°C° 0 mm 3 mps 719 mmHg 41%
    11:00 +28°C° 0 mm 4 mps 719 mmHg 33%
    12:00 +30°C° 0 mm 4 mps 719 mmHg 26%
    13:00 +30°C° 0 mm 4 mps 718 mmHg 24%
    14:00 +32°C° 0 mm 5 mps 717 mmHg 23%
    15:00 +33°C° 0 mm 6 mps 717 mmHg 22%
    16:00 +30°C° 0 mm 6 mps 716 mmHg 27%
    17:00 +29°C° 0 mm 7 mps 716 mmHg 32%
    18:00 +28°C° 0 mm 8 mps 716 mmHg 37%
    19:00 +27°C° 0 mm 7 mps 717 mmHg 42%
    20:00 +26°C° 0 mm 6 mps 717 mmHg 46%
    21:00 +25°C° 0 mm 5 mps 718 mmHg 51%
    22:00 +23°C° 0 mm 5 mps 717 mmHg 52%
    23:00 +23°C° 0 mm 4 mps 717 mmHg 54%

    Day after tomorrow, 18 January, Thursday

    Time Temperature Precipitation Wind Pressure Humidity
    00:00 +22°C° 0 mm 4 mps 717 mmHg 56%
    01:00 +22°C° 0 mm 4 mps 717 mmHg 59%
    02:00 +21°C° 0 mm 4 mps 716 mmHg 63%
    03:00 +21°C° 0 mm 3 mps 716 mmHg 66%
    04:00 +20°C° 0 mm 3 mps 716 mmHg 69%
    05:00 +20°C° 0 mm 3 mps 717 mmHg 73%
    06:00 +20°C° 0 mm 3 mps 717 mmHg 76%
    07:00 +21°C° 0 mm 4 mps 718 mmHg 70%
    08:00 +22°C° 0 mm 4 mps 718 mmHg 64%
    09:00 +23°C° 0 mm 5 mps 719 mmHg 58%
    10:00 +26°C° 0 mm 5 mps 719 mmHg 51%
    11:00 +28°C° 0 mm 5 mps 719 mmHg 44%
    12:00 +29°C° 0 mm 5 mps 718 mmHg 37%
    13:00 +30°C° 0 mm 6 mps 718 mmHg 36%
    14:00 +30°C° 0 mm 6 mps 717 mmHg 35%
    15:00 +32°C° 0 mm 6 mps 716 mmHg 35%
    16:00 +29°C° 0 mm 7 mps 716 mmHg 40%
    17:00 +28°C° 0 mm 7 mps 716 mmHg 46%
    18:00 +27°C° 0 mm 7 mps 716 mmHg 52%
    19:00 +26°C° 0 mm 7 mps 717 mmHg 57%
    20:00 +24°C° 0 mm 6 mps 717 mmHg 62%
    21:00 +23°C° 0 mm 6 mps 718 mmHg 67%
    22:00 +23°C° 0 mm 5 mps 718 mmHg 69%
    23:00 +22°C° 0 mm 5 mps 718 mmHg 71%

    19 January, Friday

    Time Temperature Precipitation Wind Pressure Humidity
    00:00 +22°C° 0 mm 5 mps 717 mmHg 74%
    01:00 +21°C° 0 mm 4 mps 717 mmHg 75%
    02:00 +21°C° 0 mm 4 mps 717 mmHg 77%
    03:00 +21°C° 0 mm 4 mps 716 mmHg 78%
    04:00 +21°C° 0 mm 4 mps 717 mmHg 79%
    05:00 +21°C° 0 mm 4 mps 717 mmHg 80%
    06:00 +20°C° 0 mm 4 mps 718 mmHg 80%
    07:00 +21°C° 0 mm 4 mps 718 mmHg 75%
    08:00 +22°C° 0 mm 5 mps 719 mmHg 70%
    09:00 +23°C° 0 mm 6 mps 720 mmHg 65%
    10:00 +26°C° 0 mm 6 mps 720 mmHg 60%
    11:00 +27°C° 0 mm 6 mps 719 mmHg 54%
    12:00 +28°C° 0 mm 6 mps 719 mmHg 48%
    13:00 +29°C° 0 mm 6 mps 718 mmHg 46%
    14:00 +29°C° 0 mm 6 mps 718 mmHg 45%
    15:00 +30°C° 0 mm 6 mps 717 mmHg 43%
    16:00 +29°C° 0 mm 6 mps 717 mmHg 48%
    17:00 +28°C° 0 mm 6 mps 717 mmHg 52%
    18:00 +27°C° 0 mm 7 mps 717 mmHg 56%
    19:00 +26°C° 0 mm 6 mps 718 mmHg 61%
    20:00 +25°C° 0 mm 5 mps 718 mmHg 66%
    21:00 +23°C° 0 mm 5 mps 719 mmHg 70%
    22:00 +23°C° 0 mm 4 mps 719 mmHg 72%
    23:00 +23°C° 0 mm 4 mps 719 mmHg 74%

    20 January, Saturday

    Time Temperature Precipitation Wind Pressure Humidity
    00:00 +24°C° 0 mm 3 mps 719 mmHg 76%
    01:00 +22°C° 0 mm 3 mps 718 mmHg 78%
    02:00 +22°C° 0 mm 3 mps 718 mmHg 79%
    03:00 +22°C° 0 mm 3 mps 718 mmHg 80%
    04:00 +23°C° 0 mm 2 mps 718 mmHg 81%
    05:00 +21°C° 0 mm 2 mps 719 mmHg 82%
    06:00 +21°C° 0 mm 2 mps 719 mmHg 82%
    07:00 +23°C° 0 mm 2 mps 720 mmHg 78%
    08:00 +24°C° 0 mm 2 mps 721 mmHg 73%
    09:00 +25°C° 0 mm 3 mps 721 mmHg 69%
    10:00 +26°C° 0 mm 3 mps 721 mmHg 62%
    11:00 +27°C° 0 mm 3 mps 721 mmHg 55%
    12:00 +28°C° 0 mm 3 mps 720 mmHg 49%
    13:00 +29°C° 0 mm 3 mps 719 mmHg 47%
    14:00 +30°C° 0 mm 4 mps 719 mmHg 44%
    15:00 +30°C° 0 mm 4 mps 718 mmHg 42%
    16:00 +30°C° 0 mm 4 mps 718 mmHg 45%
    17:00 +29°C° 0 mm 5 mps 718 mmHg 48%
    18:00 +29°C° 0 mm 5 mps 719 mmHg 51%
    19:00 +28°C° 0 mm 5 mps 719 mmHg 56%
    20:00 +27°C° 0 mm 5 mps 719 mmHg 61%
    21:00 +26°C° 0 mm 4 mps 720 mmHg 66%
    22:00 +26°C° 0 mm 4 mps 720 mmHg 68%
    23:00 +25°C° 0 mm 4 mps 719 mmHg 71%

    21 January, Sunday

    Time Temperature Precipitation Wind Pressure Humidity
    00:00 +25°C° 0 mm 3 mps 719 mmHg 74%
    01:00 +24°C° 0 mm 3 mps 719 mmHg 75%
    02:00 +24°C° 0 mm 3 mps 719 mmHg 77%
    03:00 +22°C° 0 mm 3 mps 718 mmHg 78%
    04:00 +22°C° 0 mm 3 mps 719 mmHg 79%
    05:00 +22°C° 0 mm 3 mps 719 mmHg 79%
    06:00 +23°C° 0 mm 2 mps 719 mmHg 80%
    07:00 +23°C° 0 mm 2 mps 720 mmHg 75%
    08:00 +24°C° 0 mm 2 mps 720 mmHg 70%
    09:00 +25°C° 0 mm 3 mps 721 mmHg 66%
    10:00 +27°C° 0 mm 3 mps 721 mmHg 59%
    11:00 +28°C° 0 mm 3 mps 720 mmHg 52%
    12:00 +29°C° 0 mm 4 mps 720 mmHg 45%
    13:00 +30°C° 0 mm 4 mps 719 mmHg 42%
    14:00 +32°C° 0 mm 5 mps 719 mmHg 39%
    15:00 +33°C° 0 mm 6 mps 718 mmHg 36%
    16:00 +32°C° 0 mm 6 mps 718 mmHg 39%
    17:00 +30°C° 0 mm 6 mps 718 mmHg 42%
    18:00 +29°C° 0 mm 7 mps 719 mmHg 45%
    19:00 +28°C° 0 mm 6 mps 719 mmHg 51%
    20:00 +27°C° 0 mm 6 mps 719 mmHg 56%
    21:00 +26°C° 0 mm 5 mps 720 mmHg 62%
    22:00 +25°C° 0 mm 5 mps 719 mmHg 64%
    23:00 +25°C° 0 mm 4 mps 719 mmHg 67%
    Show more